EW3204 Weather Reports


Display with metric or nautical units.
time (UTC)temp
F
wind
direction
speed
MPH
gust
MPH
rain 1hr
in
rain 24hr
in
rain mn
in
humidity
%
barometer
mb
20260505004513 68 267 16.0 0.0 0.00 0.00 0.00 33 1009.6
20260505003011 68 258 14.0 0.0 0.00 0.00 0.00 34 1009.6
20260505001512 68 285 13.0 0.0 0.00 0.00 0.00 33 1009.5
20260505000011 69 264 15.0 0.0 0.00 0.00 0.00 33 1009.7
20260504234510 69 290 19.0 0.0 0.00 0.00 0.00 34 1009.4
20260504233010 70 326 18.0 0.0 0.00 0.00 0.00 33 1009.2
20260504231510 70 327 19.0 0.0 0.00 0.00 0.00 32 1009.1
20260504230011 71 308 18.0 0.0 0.00 0.00 0.00 32 1009.0
20260504224508 71 308 18.0 0.0 0.00 0.00 0.00 32 1009.0
20260504223011 71 288 18.0 0.0 0.00 0.00 0.00 34 1009.3
20260504221507 71 291 19.0 0.0 0.00 0.00 0.00 33 1009.4
20260504220013 71 297 16.0 0.0 0.00 0.00 0.00 31 1009.4
20260504214507 71 285 17.0 0.0 0.00 0.00 0.00 32 1009.6
20260504213019 71 306 17.0 0.0 0.00 0.00 0.00 31 1009.7
20260504211506 71 298 15.0 0.0 0.00 0.00 0.00 31 1009.8
20260504210005 71 301 17.0 0.0 0.00 0.00 0.00 32 1009.9
20260504204512 71 275 17.0 0.0 0.00 0.00 0.00 33 1009.9
20260504203004 71 275 14.0 0.0 0.00 0.00 0.00 32 1010.0
20260504201502 71 271 15.0 0.0 0.00 0.00 0.00 33 1009.9
20260504200002 70 297 13.0 0.0 0.00 0.00 0.00 33 1010.1
20260504194602 70 289 14.0 0.0 0.00 0.00 0.00 33 1010.3
20260504193058 70 279 12.0 0.0 0.00 0.00 0.00 33 1010.2
20260504191600 69 299 13.0 0.0 0.00 0.00 0.00 33 1010.4
20260504190053 69 310 14.0 0.0 0.00 0.00 0.00 34 1010.6
20260504184551 68 290 12.0 0.0 0.00 0.00 0.00 35 1010.9
20260504183051 68 288 11.0 0.0 0.00 0.00 0.00 36 1011.1
20260504181549 67 279 11.0 0.0 0.00 0.00 0.00 37 1011.4
20260504180046 66 307 11.0 0.0 0.00 0.00 0.00 37 1011.4
20260504174544 65 275 12.0 0.0 0.00 0.00 0.00 39 1011.4
20260504173042 65 309 11.0 0.0 0.00 0.00 0.00 40 1011.3
20260504171546 65 301 11.0 0.0 0.00 0.00 0.00 37 1011.1
20260504090105 61 288 15.0 0.0 0.00 0.00 0.00 49 1008.7
20260504081556 62 271 12.0 0.0 0.00 0.00 0.00 48 1009.5
20260504044534 65 287 4.0 0.0 0.00 0.00 0.00 41 1006.7
20260504043024 65 302 7.0 0.0 0.00 0.00 0.00 41 1006.5
20260504041520 66 289 8.0 0.0 0.00 0.00 0.00 42 1006.3
20260504040018 67 232 9.0 0.0 0.00 0.00 0.00 36 1006.2
20260504034517 67 190 12.0 0.0 0.00 0.00 0.00 36 1006.1
20260504033017 67 217 17.0 0.0 0.00 0.00 0.00 37 1005.8
20260504031516 68 235 17.0 0.0 0.00 0.00 0.00 35 1005.7
20260504030018 67 265 12.0 0.0 0.00 0.00 0.00 38 1005.3
20260504024511 69 230 11.0 0.0 0.00 0.00 0.00 35 1005.6
20260504023010 69 293 9.0 0.0 0.00 0.00 0.00 39 1005.7
20260504021511 71 269 20.0 0.0 0.00 0.00 0.00 33 1005.0
20260504020013 73 250 16.0 0.0 0.00 0.00 0.00 33 1004.8
20260504014505 74 304 14.0 0.0 0.00 0.00 0.00 31 1004.6
20260504013009 76 241 9.0 0.0 0.00 0.00 0.00 26 1004.6
20260504011502 77 242 12.0 0.0 0.00 0.00 0.00 26 1004.4
20260504010002 78 342 8.0 0.0 0.00 0.00 0.00 26 1004.1